Location: Jalan Sepang
(2.8072°N, 101.8021°E)
Time: 05:42:25
(UTC+00:00)

FALCON 9 R/B - Pass Details

Date: 15 May 2026
Orbit: 201 x 9434 km, 27.0° (Epoch: 6 June)

Event Time Altitude Azimuth Distance (km) Brightness Sun altitude
Rises 11:39:04 0° 259° (W) 2,745 5.8 -6.1°
Reaches altitude 10° 11:40:34 10° 265° (W) 2,184 5.3 -6.5°
Maximum altitude 11:45:24 54° 343° (NNW) 1,573 3.6 -7.6°
Drops below altitude 10° 12:02:33 10° 56° (NE) 7,190 6.3 -11.7°
Sets 12:13:00 0° 60° (ENE) 10,120 7.0 -14.1°
